Weather History for Fryeburg, ME

Change the Weather History Date:

Saturday, April 5, 2014

  Actual Average Record
Temperature  
Mean Temperature 40 °F -  
Max Temperature 50 °F 47 °F 59 °F (1997)
Min Temperature 32 °F 24 °F 17 °F (2002)
Degree Days  
Heating Degree Days 25    
Moisture  
Dew Point 31 °F    
Average Humidity 84    
Maximum Humidity 100    
Minimum Humidity 46    
Precipitation  
Precipitation 0.23 in - - ()
Sea Level Pressure  
Sea Level Pressure 29.80 in    
Wind  
Wind Speed 2 mph (WNW)    
Max Wind Speed 15 mph    
Max Gust Speed 24 mph    
Visibility 6 miles    
Events Rain , Snow    
Averages and records for this station are not official NWS values.
T = Trace of Precipitation, MM = Missing Value Source: NWS Daily Summary

Daily Weather History Graph

Daily Weather History Graph

Search for Another Location

Airport:

Trip Planner

Search our weather history database for the weather conditions in past years. The results will help you decide how hot, cold, wet, or windy it might be!

Date:

Astronomy

Apr. 05, 2014 Rise Set
Actual Time 6:18 AM EDT 7:15 PM EDT
Civil Twilight 5:48 AM EDT 7:45 PM EDT
Nautical Twilight 5:13 AM EDT 8:20 PM EDT
Astronomical Twilight 4:37 AM EDT 8:56 PM EDT
Moon 10:15 AM EDT (4/5) 12:30 AM EDT (4/5)
Length of Visible Light 13h 56m
Length of Day
12h 57m
Waxing Crescent, 34% of the Moon is Illuminated
Apr 5
Waxing Crescent
Apr 7
First Quarter
Apr 15
Full
Apr 22
Last Quarter
Apr 29
New

Hourly Weather History & Observations

Time (EDT) Temp. Windchill Dew Point Humidity Pressure Visibility Wind Dir Wind Speed Gust Speed Precip Events Conditions
12:01 AM 33.1 °F - 30.9 °F 92% 29.97 in 1.8 mi Calm Calm - 0.00 in Snow Light Snow
12:12 AM 32.0 °F - 30.9 °F 96% 29.96 in 1.2 mi Calm Calm - 0.01 in Snow Light Snow
12:24 AM 32.0 °F - 32.0 °F 100% 29.96 in 0.8 mi Calm Calm - 0.02 in Snow Light Snow
12:44 AM 32.0 °F - 30.9 °F 96% 29.95 in 1.5 mi Calm Calm - 0.04 in Snow Light Snow
12:51 AM 33.8 °F - 32.0 °F 93% 29.95 in 2.5 mi Calm Calm - 0.04 in Snow Light Snow
12:54 AM 32.0 °F - 32.0 °F 100% 29.96 in 2.5 mi Calm Calm - 0.04 in Snow Light Snow
1:06 AM 32.0 °F 27.5 °F 30.9 °F 96% 29.93 in 4.0 mi NW 4.6 mph - 0.00 in   Overcast
1:21 AM 32.0 °F - 32.0 °F 100% 29.93 in 3.0 mi Calm Calm - 0.01 in   Overcast
1:31 AM 33.1 °F - 32.0 °F 96% 29.93 in 3.0 mi Calm Calm - 0.02 in Snow Light Snow
1:34 AM 33.1 °F - 32.0 °F 96% 29.93 in 2.5 mi Calm Calm - 0.02 in Snow Light Snow
1:37 AM 33.1 °F - 32.0 °F 96% 29.92 in 3.0 mi Calm Calm - 0.02 in Snow Light Snow
1:52 AM 33.8 °F - 32.0 °F 93% 29.91 in 6.0 mi Calm Calm - 0.02 in   Overcast
1:54 AM 33.1 °F - 32.0 °F 96% 29.93 in 6.0 mi Calm Calm - 0.02 in Rain Light Rain
2:10 AM 33.1 °F - 32.0 °F 96% 29.91 in 3.0 mi Calm Calm - 0.01 in Rain Light Rain
2:22 AM 33.1 °F - 32.0 °F 96% 29.90 in 2.5 mi Calm Calm - 0.02 in Rain Light Rain
2:30 AM 33.1 °F - 32.0 °F 96% 29.89 in 2.5 mi Calm Calm - 0.02 in   Overcast
2:51 AM 33.8 °F 30.8 °F 32.0 °F 93% 29.88 in 3.0 mi NNW 3.5 mph - 0.05 in Rain Light Rain
2:54 AM 33.1 °F 28.7 °F 32.0 °F 96% 29.89 in 3.0 mi NNW 4.6 mph - 0.05 in Rain Light Rain
3:52 AM 33.8 °F 30.8 °F 32.0 °F 93% 29.84 in 4.0 mi North 3.5 mph - 0.04 in Rain Light Rain
3:54 AM 33.1 °F 30.0 °F 32.0 °F 96% 29.85 in 4.0 mi North 3.5 mph - 0.05 in Rain Rain
4:22 AM 33.1 °F 28.7 °F 30.9 °F 92% 29.81 in 7.0 mi North 4.6 mph - 0.02 in Rain Light Rain
4:52 AM 33.8 °F 30.8 °F 32.0 °F 93% 29.80 in 10.0 mi NW 3.5 mph - 0.05 in Rain Light Rain
4:54 AM 33.1 °F 30.0 °F 32.0 °F 96% 29.81 in 10.0 mi NNW 3.5 mph - 0.05 in Rain Light Rain
5:15 AM 33.1 °F 30.0 °F 32.0 °F 96% 29.79 in 10.0 mi NNW 3.5 mph - 0.00 in   Overcast
5:25 AM 33.1 °F - 32.0 °F 96% 29.79 in 10.0 mi Calm Calm - 0.00 in   Overcast
5:54 AM 33.1 °F - 32.0 °F 96% 29.79 in 2.5 mi Calm Calm - 0.01 in   Overcast
6:22 AM 33.1 °F - 32.0 °F 96% 29.76 in 3.0 mi Calm Calm - 0.01 in   Overcast
6:41 AM 33.1 °F - 32.0 °F 96% 29.76 in 7.0 mi Calm Calm - 0.01 in   Overcast
6:54 AM 33.1 °F - 32.0 °F 96% 29.77 in 9.0 mi Calm Calm - 0.01 in   Overcast
7:11 AM 33.1 °F 30.0 °F 32.0 °F 96% 29.75 in 9.0 mi WNW 3.5 mph - N/A   Overcast
7:50 AM 33.8 °F - 32.0 °F 93% 29.73 in 5.0 mi Calm Calm - N/A   Overcast
7:54 AM 33.1 °F - 32.0 °F 96% 29.74 in 5.0 mi Calm Calm - N/A   Overcast
8:20 AM 34.0 °F - 32.0 °F 92% 29.72 in 4.0 mi Calm Calm - N/A   Overcast
8:54 AM 35.1 °F - 33.1 °F 92% 29.73 in 3.0 mi Calm Calm - N/A   Overcast
9:18 AM 35.1 °F - 34.0 °F 96% 29.70 in 3.0 mi Calm Calm - N/A   Overcast
9:51 AM 37.4 °F - 35.6 °F 93% 29.70 in 10.0 mi Calm Calm - N/A   Overcast
9:54 AM 37.0 °F - 35.1 °F 93% 29.71 in 10.0 mi Calm Calm - N/A   Overcast
10:06 AM 37.9 °F - 35.1 °F 89% 29.69 in 10.0 mi Calm Calm - N/A   Overcast
10:54 AM 41.0 °F - 35.1 °F 79% 29.69 in 10.0 mi Calm Calm - N/A   Overcast
11:45 AM 43.0 °F 39.5 °F 36.0 °F 76% 29.65 in 10.0 mi Variable 5.8 mph - N/A   Mostly Cloudy
11:54 AM 44.1 °F 41.5 °F 37.0 °F 76% 29.67 in 10.0 mi SW 4.6 mph - N/A   Mostly Cloudy
12:17 PM 45.0 °F 41.8 °F 37.0 °F 74% 29.64 in 10.0 mi Variable 5.8 mph - N/A   Scattered Clouds
12:54 PM 46.9 °F - 37.0 °F 68% 29.65 in 10.0 mi SW 5.8 mph - N/A   Scattered Clouds
1:54 PM 48.0 °F - 30.0 °F 50% 29.63 in 10.0 mi West 4.6 mph 19.6 mph N/A   Overcast
2:54 PM 46.9 °F - 28.0 °F 48% 29.64 in 10.0 mi WSW 15.0 mph 24.2 mph N/A   Mostly Cloudy
3:54 PM 46.0 °F 41.4 °F 26.1 °F 46% 29.66 in 10.0 mi West 9.2 mph 24.2 mph N/A   Overcast
4:54 PM 45.0 °F 39.7 °F 25.0 °F 46% 29.68 in 10.0 mi West 10.4 mph 17.3 mph N/A   Overcast
5:54 PM 43.0 °F 38.2 °F 24.1 °F 47% 29.70 in 10.0 mi West 8.1 mph - N/A   Overcast
6:54 PM 42.1 °F 36.1 °F 24.1 °F 49% 29.72 in 10.0 mi West 10.4 mph - N/A   Overcast
7:54 PM 41.0 °F 35.2 °F 23.0 °F 49% 29.76 in 10.0 mi WNW 9.2 mph - N/A   Overcast
8:54 PM 39.0 °F 34.0 °F 24.1 °F 55% 29.80 in 10.0 mi West 6.9 mph - N/A   Overcast
9:54 PM 37.9 °F 30.9 °F 23.0 °F 55% 29.83 in 10.0 mi WNW 10.4 mph 17.3 mph N/A   Overcast
10:54 PM 37.0 °F 31.0 °F 21.9 °F 54% 29.86 in 10.0 mi NW 8.1 mph 18.4 mph N/A   Overcast
11:54 PM 37.0 °F 30.4 °F 21.0 °F 52% 29.86 in 10.0 mi NW 9.2 mph - N/A   Overcast